This is the latest recevied weather packets stored in our database for station/object CE1RLP-31. If no packets are shown the sender has not sent any weather packets the latest 10 day(s).
| Time | Temp. | Humidity | Pressure | Rain* | Wind** | Luminosity | Snow |
|---|---|---|---|---|---|---|---|
| 1777487850 | 17.22° C | 8% | 1096.9 hPa | - | - | - | - |
| 1777486950 | 17.78° C | 8% | 1097.1 hPa | - | - | - | - |
| 1777486050 | 17.78° C | 8% | 1097.2 hPa | - | - | - | - |
| 1777485150 | 17.78° C | 8% | 1097.4 hPa | - | - | - | - |
| 1777484250 | 18.33° C | 7% | 1097.4 hPa | - | - | - | - |
| 1777483349 | 17.78° C | 7% | 1097.7 hPa | - | - | - | - |
| 1777482449 | 18.33° C | 6% | 1097.8 hPa | - | - | - | - |
| 1777481549 | 17.22° C | 8% | 1097.9 hPa | - | - | - | - |
| 1777480649 | 17.22° C | 8% | 1097.9 hPa | - | - | - | - |
| 1777479749 | 16.67° C | 8% | 1098 hPa | - | - | - | - |
| 1777478849 | 15.56° C | 8% | 1098.1 hPa | - | - | - | - |
| 1777477951 | 15.56° C | 8% | 1098.2 hPa | - | - | - | - |
| 1777477050 | 15° C | 9% | 1098.4 hPa | - | - | - | - |
| 1777476150 | 13.89° C | 8% | 1098.3 hPa | - | - | - | - |
| 1777475250 | 13.89° C | 8% | 1098.5 hPa | - | - | - | - |
| 1777474350 | 13.33° C | 8% | 1098.5 hPa | - | - | - | - |
| 1777473450 | 12.78° C | 9% | 1098.5 hPa | - | - | - | - |
| 1777472550 | 12.22° C | 9% | 1098.4 hPa | - | - | - | - |
| 1777471650 | 11.67° C | 9% | 1098.5 hPa | - | - | - | - |
| 1777470750 | 11.11° C | 9% | 1098.5 hPa | - | - | - | - |
| 1777469850 | 10.56° C | 10% | 1098.5 hPa | - | - | - | - |
| 1777468949 | 10° C | 9% | 1098.4 hPa | - | - | - | - |
| 1777468049 | 8.89° C | 10% | 1098.3 hPa | - | - | - | - |
| 1777467149 | 8.33° C | 10% | 1098.2 hPa | - | - | - | - |
| 1777466249 | 7.78° C | 10% | 1098.1 hPa | - | - | - | - |
* Rain since midnight (hover to see other rain measurements)
** Current wind speed in m/s (hover to see current wind gust speed)